Eugene, Missouri, United States (65032)
Lat: 38.35N, Lon: 92.4W
Wx Zone: MOZ048
Local Info
Past Weather Observations for Today

NOTE: This archive is for the closest National Weather Service station to Eugene. Information may differ from the station used for current weather conditions.

Click here for Long-term Archive

Time Weather Temperature Dewpoint Humidity Pressure Winds Precip Visibility
06:55
Clear
72°F / 22°C 66°F / 19°C 83% 30.09 in
(1019 mb)
S 3.5 mph
(S 6 kph)
- 10SM
06:35
Clear
72°F / 22°C 64°F / 18°C 78% 30.09 in
(1019 mb)
S 3.5 mph
(S 6 kph)
- 8SM
06:15
Clear
70°F / 21°C 64°F / 18°C 83% 30.09 in
(1019 mb)
SSE 3.5 mph
(SSE 6 kph)
- 7SM
05:55
Clear
70°F / 21°C 64°F / 18°C 83% 30.09 in
(1019 mb)
SSE 3.5 mph
(SSE 6 kph)
- 6SM
05:35
Clear
70°F / 21°C 64°F / 18°C 83% 30.09 in
(1019 mb)
S 3.5 mph
(S 6 kph)
- 7SM
05:15
Clear
70°F / 21°C 64°F / 18°C 83% 30.06 in
(1018 mb)
S 3.5 mph
(S 6 kph)
- 7SM
04:55
Clear
70°F / 21°C 64°F / 18°C 83% 30.06 in
(1018 mb)
SSE 4.6 mph
(SSE 7 kph)
- 9SM
04:35
Clear
70°F / 21°C 64°F / 18°C 83% 30.06 in
(1018 mb)
SSE 4.6 mph
(SSE 7 kph)
- 8SM
04:15
Clear
70°F / 21°C 64°F / 18°C 83% 30.06 in
(1018 mb)
SSE 4.6 mph
(SSE 7 kph)
- 8SM
03:55
Clear
70°F / 21°C 64°F / 18°C 83% 30.06 in
(1018 mb)
SSE 3.5 mph
(SSE 6 kph)
- 9SM
03:35
Clear
70°F / 21°C 64°F / 18°C 83% 30.06 in
(1018 mb)
SSE 3.5 mph
(SSE 6 kph)
- 10SM
03:15
Clear
70°F / 21°C 64°F / 18°C 83% 30.06 in
(1018 mb)
Calm - 10SM
02:55
Clear
70°F / 21°C 64°F / 18°C 83% 30.06 in
(1018 mb)
SSE 5.8 mph
(SSE 9 kph)
- 10SM
02:35
Clear
70°F / 21°C 64°F / 18°C 83% 30.06 in
(1018 mb)
SSE 4.6 mph
(SSE 7 kph)
- 10SM
02:15
Clear
70°F / 21°C 64°F / 18°C 83% 30.06 in
(1018 mb)
SE 4.6 mph
(SE 7 kph)
- 10SM
01:55
Clear
72°F / 22°C 64°F / 18°C 78% 30.06 in
(1018 mb)
SE 3.5 mph
(SE 6 kph)
- 10SM
01:35
Clear
72°F / 22°C 64°F / 18°C 78% 30.06 in
(1018 mb)
SSE 4.6 mph
(SSE 7 kph)
- 10SM
01:15
Clear
72°F / 22°C 64°F / 18°C 78% 30.06 in
(1018 mb)
S 4.6 mph
(S 7 kph)
- 10SM
00:55
Clear
72°F / 22°C 64°F / 18°C 78% 30.06 in
(1018 mb)
SSE 4.6 mph
(SSE 7 kph)
- 10SM
00:35
Clear
73°F / 23°C 66°F / 19°C 78% 30.06 in
(1018 mb)
SSE 5.8 mph
(SSE 9 kph)
- 10SM
00:15
Clear
73°F / 23°C 66°F / 19°C 78% 30.06 in
(1018 mb)
SSE 5.8 mph
(SSE 9 kph)
- 10SM
Time Weather Temperature Dewpoint Humidity Pressure Winds Precip Visibility


Weather for websites

WeatherForYou.com, LLC is not responsible for any damages or problems caused by this service. Current weather conditions are obtained from the closest station including government and personal stations which may have varying degrees of accuracy. Weather forecasts are derived from the NOAA NDFD. Like all things, this site belongs to Jesus Christ... He just trusts me to maintain it. If you have any questions or comments email webmaster@weatherforyou.com

Copyright © 2014, WeatherForYou.com LLC. All rights reserved.